Total_Precipitation_Accumulation
0.00 0.00 0.02 0.01 0.00 0.01 0.03 0.02 0.02 0.04 0.05 0.07 0.06 0.06 0.08 0.10 0.07 0.03 0.01 0.01 0.01 0.02 0.05 0.04 0.05 0.05 0.04 0.04 0.04 0.02 0.01 0.00 0.00 0.00 0.00 0.00 0.00 0.00 0.00 0.00 0.01 0.00 0.00
0.00 0.00 0.02 0.01 0.01 0.01 0.03 0.04 0.04 0.04 0.03 0.03 0.05 0.09 0.13 0.12 0.10 0.04 0.01 0.01 0.01 0.01 0.02 0.03 0.03 0.04 0.04 0.04 0.03 0.02 0.00 0.00 0.00 0.00 0.00 0.00 0.00 0.00 0.00 0.00 0.01 0.00 0.00
0.00 0.00 0.01 0.01 0.01 0.00 0.01 0.03 0.06 0.06 0.04 0.02 0.05 0.09 0.11 0.11 0.10 0.08 0.07 0.02 0.01 0.00 0.00 0.01 0.01 0.03 0.02 0.02 0.02 0.01 0.00 0.00 0.00 0.00 0.00 0.01 0.01 0.00 0.00 0.00 0.00 0.00 0.00
0.00 0.00 0.00 0.01 0.01 0.00 0.01 0.02 0.06 0.07 0.03 0.04 0.11 0.12 0.08 0.10 0.10 0.09 0.08 0.04 0.03 0.00 0.00 0.01 0.01 0.03 0.02 0.01 0.00 0.00 0.00 0.00 0.00 0.01 0.01 0.06 0.06 0.01 0.00 0.01 0.01 0.00 0.00
0.00 0.00 0.00 0.01 0.01 0.01 0.01 0.02 0.04 0.05 0.04 0.04 0.09 0.09 0.06 0.09 0.11 0.09 0.08 0.08 0.08 0.04 0.01 0.02 0.02 0.03 0.02 0.01 0.01 0.01 0.00 0.00 0.00 0.00 0.02 0.09 0.12 0.06 0.02 0.03 0.04 0.04 0.02
0.00 0.00 0.00 0.01 0.01 0.01 0.01 0.01 0.03 0.04 0.03 0.02 0.03 0.06 0.06 0.11 0.16 0.14 0.10 0.12 0.13 0.11 0.05 0.02 0.02 0.03 0.02 0.01 0.01 0.01 0.01 0.01 0.00 0.00 0.01 0.06 0.18 0.15 0.08 0.14 0.19 0.17 0.14
0.00 0.00 0.00 0.01 0.01 0.00 0.00 0.01 0.02 0.03 0.02 0.01 0.01 0.02 0.02 0.06 0.11 0.11 0.10 0.11 0.11 0.10 0.08 0.06 0.04 0.03 0.04 0.04 0.03 0.03 0.04 0.05 0.03 0.02 0.02 0.06 0.18 0.14 0.13 0.28 0.38 0.33 0.26
0.00 0.00 0.01 0.01 0.01 0.00 0.00 0.00 0.01 0.01 0.01 0.01 0.00 0.00 0.01 0.03 0.05 0.06 0.07 0.07 0.05 0.04 0.05 0.06 0.08 0.08 0.06 0.05 0.05 0.05 0.05 0.05 0.05 0.05 0.04 0.08 0.11 0.10 0.20 0.34 0.41 0.37 0.31
0.00 0.00 0.00 0.01 0.01 0.00 0.00 0.00 0.00 0.01 0.01 0.00 0.00 0.00 0.01 0.02 0.02 0.04 0.06 0.06 0.05 0.05 0.06 0.07 0.07 0.06 0.06 0.06 0.05 0.04 0.04 0.04 0.05 0.08 0.10 0.18 0.23 0.22 0.37 0.43 0.41 0.38 0.36
0.00 0.00 0.00 0.00 0.01 0.01 0.00 0.00 0.01 0.01 0.00 0.01 0.01 0.01 0.01 0.01 0.01 0.02 0.05 0.05 0.05 0.05 0.05 0.06 0.07 0.07 0.07 0.07 0.08 0.10 0.07 0.04 0.02 0.03 0.13 0.18 0.23 0.35 0.50 0.54 0.55 0.51 0.51
0.00 0.00 0.00 0.00 0.01 0.01 0.00 0.00 0.00 0.00 0.00 0.00 0.01 0.01 0.01 0.01 0.02 0.05 0.02 0.03 0.04 0.05 0.05 0.05 0.07 0.07 0.08 0.07 0.12 0.19 0.14 0.11 0.06 0.04 0.08 0.13 0.16 0.32 0.51 0.59 0.63 0.65 0.66
0.00 0.00 0.00 0.00 0.00 0.00 0.00 0.00 0.00 0.00 0.00 0.00 0.01 0.03 0.03 0.04 0.05 0.04 0.03 0.05 0.08 0.16 0.18 0.19 0.18 0.12 0.11 0.09 0.32 0.48 0.15 0.17 0.18 0.13 0.11 0.10 0.16 0.36 0.52 0.51 0.54 0.61 0.63
0.00 0.00 0.00 0.00 0.00 0.00 0.00 0.00 0.00 0.00 0.01 0.00 0.00 0.02 0.03 0.03 0.01 0.02 0.04 0.09 0.12 0.15 0.22 0.41 0.47 0.32 0.30 0.30 0.31 0.32 0.09 0.07 0.13 0.13 0.17 0.20 0.21 0.37 0.56 0.45 0.38 0.48 0.59
0.00 0.00 0.00 0.00 0.00 0.00 0.00 0.00 0.00 0.00 0.00 0.00 0.00 0.00 0.01 0.01 0.01 0.04 0.12 0.15 0.14 0.11 0.18 0.25 0.45 0.27 0.19 0.18 0.19 0.19 0.17 0.17 0.14 0.20 0.29 0.21 0.18 0.26 0.46 0.42 0.34 0.34 0.47
0.00 0.00 0.00 0.00 0.00 0.00 0.00 0.00 0.00 0.00 0.00 0.00 0.00 0.00 0.01 0.01 0.02 0.06 0.11 0.18 0.12 0.09 0.15 0.18 0.17 0.21 0.27 0.31 0.23 0.19 0.20 0.19 0.25 0.38 0.44 0.29 0.19 0.20 0.28 0.35 0.37 0.34 0.32
0.01 0.01 0.00 0.00 0.00 0.00 0.00 0.00 0.00 0.00 0.00 0.00 0.00 0.00 0.00 0.01 0.04 0.11 0.17 0.21 0.15 0.17 0.23 0.28 0.27 0.43 0.43 0.34 0.22 0.18 0.15 0.13 0.14 0.21 0.28 0.26 0.16 0.15 0.18 0.21 0.28 0.33 0.29
0.03 0.05 0.05 0.03 0.02 0.01 0.01 0.01 0.01 0.02 0.02 0.01 0.01 0.02 0.02 0.04 0.10 0.23 0.26 0.25 0.28 0.28 0.37 0.46 0.43 0.42 0.36 0.28 0.19 0.17 0.16 0.13 0.11 0.13 0.13 0.13 0.10 0.08 0.09 0.12 0.20 0.28 0.27
0.07 0.10 0.08 0.06 0.05 0.05 0.05 0.05 0.07 0.08 0.07 0.05 0.05 0.06 0.08 0.10 0.21 0.42 0.39 0.36 0.48 0.42 0.53 0.70 0.60 0.50 0.44 0.34 0.24 0.18 0.12 0.10 0.07 0.08 0.06 0.06 0.08 0.05 0.06 0.10 0.16 0.18 0.21
0.20 0.22 0.21 0.19 0.19 0.20 0.19 0.23 0.28 0.26 0.20 0.15 0.14 0.17 0.23 0.26 0.35 0.55 0.54 0.60 0.59 0.66 0.70 0.56 0.71 0.67 0.57 0.51 0.32 0.26 0.15 0.10 0.08 0.10 0.08 0.06 0.05 0.05 0.05 0.06 0.08 0.12 0.23
0.49 0.45 0.49 0.51 0.47 0.42 0.42 0.50 0.50 0.43 0.40 0.40 0.40 0.43 0.47 0.54 0.62 0.81 0.78 0.76 0.74 0.87 0.84 0.73 0.78 0.75 0.62 0.56 0.35 0.21 0.14 0.08 0.08 0.10 0.10 0.09 0.06 0.04 0.05 0.08 0.15 0.13 0.16
0.80 0.78 0.82 0.89 1.02 1.09 1.15 1.18 1.17 1.08 1.01 0.86 0.73 0.68 0.68 0.69 0.80 1.00 0.94 1.02 0.92 0.90 0.86 0.78 0.91 0.90 0.75 0.68 0.50 0.29 0.12 0.06 0.07 0.11 0.18 0.19 0.15 0.12 0.12 0.12 0.14 0.14 0.19
0.89 1.02 1.03 1.00 1.05 1.11 1.36 1.68 1.87 1.91 1.67 1.33 1.13 1.03 0.92 0.90 0.99 1.08 1.11 0.99 0.95 0.95 0.92 0.91 0.96 0.83 0.67 0.69 0.67 0.57 0.30 0.18 0.15 0.20 0.34 0.38 0.31 0.26 0.23 0.19 0.16 0.17 0.20
0.73 0.77 0.76 0.76 0.84 0.92 1.10 1.41 1.64 1.91 1.85 1.61 1.37 1.26 1.17 1.12 1.08 1.11 1.12 1.05 0.99 0.95 1.00 1.07 0.95 0.81 0.69 0.68 0.73 0.81 0.62 0.41 0.24 0.11 0.15 0.24 0.29 0.27 0.23 0.21 0.17 0.16 0.19
0.52 0.53 0.57 0.65 0.76 0.89 1.04 1.27 1.55 1.82 1.79 1.73 1.67 1.46 1.27 1.11 1.01 0.98 0.99 0.98 0.96 0.95 1.02 0.95 0.91 0.96 0.92 0.83 0.86 0.88 0.82 0.74 0.60 0.25 0.10 0.16 0.24 0.28 0.26 0.22 0.18 0.16 0.18
0.50 0.56 0.62 0.70 0.83 0.95 1.06 1.17 1.34 1.72 1.73 1.58 1.46 1.31 1.19 1.06 0.98 0.95 0.93 0.89 0.85 0.85 0.90 0.90 1.02 0.99 1.00 0.96 0.91 0.88 0.92 0.92 0.85 0.63 0.29 0.22 0.22 0.23 0.25 0.24 0.22 0.21 0.24
0.51 0.57 0.61 0.64 0.71 0.78 0.84 0.92 0.98 1.16 1.24 1.17 1.11 1.05 0.97 0.88 0.84 0.86 0.84 0.80 0.76 0.78 0.86 0.87 0.87 0.86 0.87 0.90 0.84 0.81 0.85 0.84 0.85 0.86 0.62 0.47 0.38 0.31 0.33 0.33 0.31 0.33 0.32